Simultaneous Nadir Overpasses (SNOs) Predictions

Prediction of SNOs between AQUA and METOP-A Satellite Orbit:

Table of predicted SNOs for the next 14.0 days since TLE Epoch: 4/19/2014
Index Date (AQUA) Time (AQUA) Lat,Lon (AQUA) SZA (AQUA ) Date (METOP-A) Time (METOP-A) Lat,Lon (METOP-A) SZA (METOP-A ) Distance(km) Time Diff (sec)
1 04/21/2014 13:15:27 73.41, -23.57 61.42 04/21/2014 13:14:19 73.34, -25.73 61.43 68.97 68
2 04/21/2014 14:05:02 -73.91, 142.98 118.06 04/21/2014 14:04:49 -73.93, 142.99 118.04 2.27 13
3 04/21/2014 14:54:31 73.98, -49.54 62.01 04/21/2014 14:55:28 73.96, -49.59 61.99 2.47 57
4 04/24/2014 08:49:46 73.88, 41.86 60.98 04/24/2014 08:48:33 73.86, 41.91 60.97 2.89 73
5 04/24/2014 09:39:12 -73.91,-150.57 119.00 04/24/2014 09:39:14 -73.91,-150.65 119.00 2.61 2
6 04/24/2014 10:28:41 73.99, 16.89 61.07 04/24/2014 10:29:52 73.99, 16.88 61.07 0.31 71
7 04/27/2014 04:23:54 73.86, 108.36 60.05 04/27/2014 04:22:57 73.88, 108.36 60.07 1.51 57
8 04/27/2014 05:13:21 -73.94, -84.17 119.88 04/27/2014 05:13:38 -73.92, -84.21 119.90 2.37 17
9 04/27/2014 06:02:59 74.49, 82.19 60.69 04/27/2014 06:04:06 74.50, 84.58 60.63 71.15 67
10 04/29/2014 23:58:00 73.87, 174.81 59.17 04/29/2014 23:57:20 73.88, 174.77 59.19 1.74 40
11 04/30/2014 00:47:27 -73.95, -17.71 120.76 04/30/2014 00:48:01 -73.93, -17.79 120.78 3.10 34
12 05/02/2014 18:42:25 -73.19, 75.10 122.40 05/02/2014 18:41:19 -73.14, 72.15 122.34 95.14 66
13 05/02/2014 19:32:06 73.90,-118.78 58.35 05/02/2014 19:31:43 73.92,-118.71 58.37 3.12 23
14 05/02/2014 20:21:33 -73.98, 48.70 121.58 05/02/2014 20:22:24 -73.97, 48.72 121.60 1.23 51




NCC Satellite Simultaneous Nadir Overpasses (SNOs) Prediction Service
